EW2591 Weather Reports


time (UTC)temp
C
wind
direction
speed
KPH
gust
KPH
rain 1hr
cm
rain 24hr
cm
rain mn
cm
humidity
%
barometer
mb
20260510032325 11 209 1.6 14.5 0.00 0.74 0.74 85
20260510031826 11 215 3.2 17.7 0.00 0.74 0.74 85
20260510031324 11 237 4.8 17.7 0.00 0.74 0.74 86
20260510030823 11 241 1.6 14.5 0.00 0.74 0.74 86
20260510030324 11 264 6.4 14.5 0.00 0.74 0.74 86
20260510025823 11 264 4.8 14.5 0.00 0.74 0.74 86
20260510025324 11 267 4.8 12.9 0.00 0.74 0.74 86
20260510024825 11 174 1.6 4.8 0.00 0.74 0.74 86
20260510024325 11 168 1.6 4.8 0.00 0.74 0.74 86
20260510023824 11 188 1.6 14.5 0.00 0.74 0.74 86
20260510023346 11 239 1.6 14.5 0.00 0.74 0.74 87
20260510022824 11 142 0.0 8.0 0.00 0.74 0.74 86
20260510022324 11 241 0.0 8.0 0.00 0.74 0.74 86
20260510021844 11 155 0.0 6.4 0.00 0.74 0.74 86
20260510021325 11 187 3.2 6.4 0.00 0.74 0.74 86
20260510020825 11 251 0.0 4.8 0.00 0.74 0.74 86
20260510020327 11 253 0.0 4.8 0.00 0.74 0.74 86
20260510015847 11 162 0.0 1.6 0.00 0.74 0.74 85
20260510015325 11 162 0.0 8.0 0.00 0.74 0.74 85
20260510014823 11 170 3.2 8.0 0.00 0.74 0.74 85
20260510014323 11 210 0.0 0.0 0.00 0.74 0.74 84
20260510013823 11 210 0.0 0.0 0.00 0.74 0.74 83
20260510013322 11 212 0.0 6.4 0.00 0.74 0.74 82
20260510012821 11 210 1.6 6.4 0.00 0.74 0.74 82
20260510012322 12 311 0.0 8.0 0.00 0.74 0.74 82
20260510011822 12 313 3.2 11.3 0.00 0.74 0.74 83
20260510011322 12 310 1.6 11.3 0.00 0.74 0.74 83
20260510010823 12 292 1.6 11.3 0.00 0.74 0.74 83
20260510010322 12 280 1.6 16.1 0.00 0.74 0.74 83
20260510005824 11 208 0.0 16.1 0.00 0.74 0.74 83
20260510005323 12 231 3.2 14.5 0.00 0.74 0.74 83
20260510004844 12 232 0.0 6.4 0.00 0.74 0.74 83
20260510004324 12 237 0.0 8.0 0.00 0.74 0.74 83
20260510003908 12 249 3.2 8.0 0.00 0.74 0.74 83
20260510003328 12 239 0.0 9.7 0.00 0.74 0.74 83
20260510002827 12 245 3.2 12.9 0.00 0.74 0.74 83
20260510002345 12 312 3.2 12.9 0.00 0.74 0.74 83
20260510001824 12 263 4.8 8.0 0.00 0.74 0.74 83
20260510001324 11 240 3.2 11.3 0.00 0.74 0.74 83
20260510000823 11 251 0.0 9.7 0.00 0.74 0.74 83
20260510000326 11 247 1.6 8.0 0.00 0.74 0.74 83
20260509235821 12 253 1.6 8.0 0.00 0.74 0.74 83
20260509235322 12 244 1.6 8.0 0.00 0.74 0.74 83
20260509234821 12 264 0.0 8.0 0.00 0.74 0.74 83
20260509234342 12 253 1.6 6.4 0.00 0.74 0.74 83
20260509233841 12 252 3.2 8.0 0.00 0.74 0.74 83
20260509233321 12 257 3.2 8.0 0.00 0.74 0.74 83
20260509232840 12 201 0.0 11.3 0.00 0.74 0.74 83
20260509232319 12 201 3.2 11.3 0.00 0.74 0.74 83
20260509231840 12 231 1.6 11.3 0.00 0.74 0.74 83
20260509231340 12 226 4.8 14.5 0.00 0.74 0.74 83
20260509230820 12 224 3.2 11.3 0.00 0.74 0.74 83
20260509230320 12 214 4.8 11.3 0.00 0.74 0.74 83
20260509225840 12 229 3.2 12.9 0.00 0.74 0.74 83
20260509225318 12 242 6.4 12.9 0.00 0.74 0.74 83
20260509224818 12 237 4.8 17.7 0.00 0.74 0.74 83
20260509224319 12 236 9.7 17.7 0.00 0.74 0.74 83
20260509223818 12 188 8.0 20.9 0.00 0.74 0.74 83
20260509223318 12 226 11.3 20.9 0.00 0.74 0.74 83
20260509222815 12 226 6.4 20.9 0.00 0.74 0.74 83
20260509222335 12 234 4.8 20.9 0.00 0.74 0.74 83
20260509221834 12 233 8.0 20.9 0.00 0.74 0.74 83
20260509221331 12 218 8.0 22.5 0.00 0.74 0.74 83
20260509220832 12 238 12.9 24.1 0.00 0.74 0.74 83
20260509220354 12 199 9.7 24.1 0.00 0.74 0.74 83
20260509215832 12 223 8.0 12.9 0.00 0.74 0.74 83
20260509215352 12 199 1.6 14.5 0.00 0.74 0.74 84
20260509214832 12 262 8.0 19.3 0.00 0.74 0.74 83
20260509214331 12 233 9.7 19.3 0.00 0.74 0.74 83
20260509213832 12 234 4.8 19.3 0.00 0.74 0.74 84
20260509213315 12 223 9.7 17.7 0.00 0.74 0.74 84
20260509212816 11 224 11.3 17.7 0.00 0.74 0.74 84
20260509212316 11 218 8.0 17.7 0.00 0.74 0.74 85
20260509211816 11 241 6.4 17.7 0.00 0.74 0.74 85
20260509211317 11 260 6.4 14.5 0.00 0.74 0.74 85
20260509210833 11 245 4.8 12.9 0.00 0.74 0.74 86
20260509210354 11 232 4.8 12.9 0.00 0.74 0.74 86
20260509205832 11 212 4.8 14.5 0.00 0.74 0.74 86
20260509205331 11 283 4.8 11.3 0.00 0.74 0.74 87
20260509204831 11 240 3.2 14.5 0.00 0.74 0.74 87
20260509204331 11 291 4.8 14.5 0.00 0.74 0.74 87
20260509203832 11 145 6.4 17.7 0.00 0.74 0.74 87
20260509203314 11 243 8.0 19.3 0.00 0.74 0.74 87
20260509202815 11 269 8.0 19.3 0.00 0.74 0.74 87
20260509202313 11 245 6.4 12.9 0.00 0.74 0.74 88
20260509201814 11 230 6.4 14.5 0.00 0.74 0.74 88
20260509201314 11 222 6.4 14.5 0.00 0.74 0.74 88
20260509200814 11 233 4.8 12.9 0.00 0.74 0.74 87
20260509200317 11 234 4.8 16.1 0.00 0.74 0.74 87
20260509195815 11 192 8.0 16.1 0.00 0.74 0.74 87
20260509195334 11 243 4.8 11.3 0.00 0.74 0.74 87
20260509194831 11 219 4.8 11.3 0.00 0.74 0.74 87
20260509194332 11 237 3.2 17.7 0.00 0.74 0.74 87
20260509193848 11 228 4.8 17.7 0.00 0.74 0.74 87
20260509193329 11 239 8.0 14.5 0.00 0.74 0.74 87
20260509192829 11 216 8.0 14.5 0.00 0.74 0.74 87
20260509192330 11 225 4.8 12.9 0.00 0.74 0.74 87
20260509191830 11 253 4.8 11.3 0.00 0.74 0.74 87
20260509191331 11 205 8.0 12.9 0.00 0.74 0.74 87
20260509190832 11 212 4.8 19.3 0.00 0.74 0.74 87
20260509190333 11 269 3.2 19.3 0.00 0.74 0.74 87
20260509185831 11 233 3.2 11.3 0.00 0.74 0.74 87
20260509185333 11 213 4.8 14.5 0.00 0.74 0.74 87
20260509184853 11 243 6.4 14.5 0.00 0.74 0.74 87
20260509184333 11 238 6.4 12.9 0.00 0.74 0.74 87
20260509183833 11 204 3.2 11.3 0.00 0.74 0.74 87
20260509183333 11 219 3.2 11.3 0.00 0.74 0.74 88
20260509182832 11 273 4.8 11.3 0.00 0.74 0.74 87
20260509182332 11 205 8.0 11.3 0.00 0.74 0.74 87
20260509181833 11 228 1.6 8.0 0.00 0.74 0.74 88
20260509181332 11 237 1.6 11.3 0.00 0.74 0.74 88
20260509180850 11 268 4.8 11.3 0.00 0.74 0.74 88
20260509180330 11 287 1.6 9.7 0.00 0.74 0.74 89
20260509175829 11 251 1.6 11.3 0.00 0.74 0.74 88
20260509175326 10 252 6.4 11.3 0.00 0.74 0.74 88
20260509174826 10 239 4.8 9.7 0.03 0.74 0.74 89
20260509174324 10 240 1.6 11.3 0.03 0.74 0.74 88
20260509173845 10 240 3.2 11.3 0.03 0.74 0.74 88
20260509173327 10 263 4.8 11.3 0.03 0.74 0.74 88
20260509172828 10 248 3.2 11.3 0.05 0.74 0.74 89
20260509172324 10 301 3.2 9.7 0.05 0.74 0.74 89
20260509171844 10 251 0.0 12.9 0.05 0.74 0.74 90
20260509171323 10 287 3.2 12.9 0.08 0.74 0.74 90
20260509170823 10 262 3.2 12.9 0.08 0.74 0.74 90
20260509170325 10 283 0.0 16.1 0.08 0.74 0.74 91
20260509165825 10 248 8.0 16.1 0.10 0.79 0.74 91
20260509165324 10 213 6.4 12.9 0.10 0.79 0.74 91
20260509164822 10 235 3.2 8.0 0.08 0.76 0.71 92
20260509164342 10 120 1.6 6.4 0.10 0.76 0.71 92
20260509163821 10 241 1.6 6.4 0.10 0.76 0.71 92
20260509163341 10 281 1.6 9.7 0.08 0.74 0.69 92
20260509162819 10 247 3.2 9.7 0.10 0.74 0.69 92
20260509162319 10 295 1.6 16.1 0.10 0.74 0.69 92
20260509161818 10 287 4.8 16.1 0.10 0.74 0.69 92
20260509161318 10 290 1.6 6.4 0.08 0.71 0.66 92
20260509160819 10 294 1.6 6.4 0.08 0.71 0.66 93
20260509160320 9 295 3.2 9.7 0.10 0.71 0.66 93
20260509155818 9 293 1.6 9.7 0.08 0.76 0.64 93
20260509155338 9 301 3.2 9.7 0.08 0.76 0.64 93
20260509154817 9 299 4.8 8.0 0.05 0.74 0.61 93
20260509154316 9 295 3.2 9.7 0.05 0.74 0.61 93
20260509153816 9 308 4.8 9.7 0.05 0.74 0.61 93
20260509153318 9 26 0.0 0.0 0.08 0.74 0.61 93
20260509152818 9 26 0.0 0.0 0.05 0.71 0.58 93
20260509152318 9 26 0.0 0.0 0.05 0.71 0.58 93
20260509151817 9 26 0.0 0.0 0.05 0.71 0.58 93
20260509151339 9 26 0.0 9.7 0.08 0.71 0.58 93
20260509150833 9 26 0.0 9.7 0.08 0.71 0.58 93
20260509150354 9 105 0.0 0.0 0.05 0.69 0.56 93
20260509145853 9 135 0.0 1.6 0.05 0.69 0.56 94
20260509145333 8 135 0.0 1.6 0.08 0.69 0.56 94
20260509144829 8 136 0.0 0.0 0.08 0.69 0.56 93
20260509144329 8 136 0.0 0.0 0.08 0.69 0.56 93
20260509143829 8 136 0.0 0.0 0.08 0.69 0.56 93
20260509143330 8 136 0.0 0.0 0.05 0.66 0.53 94
20260509142850 8 137 0.0 0.0 0.05 0.66 0.53 94
20260509142329 8 137 0.0 0.0 0.05 0.66 0.53 94
20260509141846 8 137 0.0 0.0 0.05 0.66 0.53 94
20260509141346 8 137 0.0 0.0 0.05 0.64 0.51 94
20260509140825 8 137 0.0 4.8 0.05 0.64 0.51 94
20260509140325 7 137 0.0 8.0 0.05 0.64 0.51 94
20260509135825 7 25 0.0 0.0 0.05 0.64 0.51 94
20260509135325 7 22 0.0 0.0 0.05 0.61 0.48 93
20260509134824 7 22 0.0 0.0 0.05 0.61 0.48 93
20260509134324 7 22 0.0 0.0 0.08 0.61 0.48 93
20260509133823 7 22 0.0 3.2 0.08 0.61 0.48 93
20260509133324 7 22 0.0 4.8 0.10 0.61 0.48 93
20260509132823 7 22 0.0 0.0 0.10 0.61 0.48 93
20260509132324 7 22 0.0 0.0 0.13 0.61 0.48 93
20260509131824 7 22 0.0 0.0 0.13 0.61 0.48 93
20260509131343 6 22 0.0 0.0 0.13 0.58 0.46 93
20260509130822 6 22 0.0 0.0 0.13 0.58 0.46 93
20260509130323 6 22 0.0 0.0 0.13 0.58 0.46 93
20260509125822 6 22 0.0 0.0 0.15 0.58 0.46 93
20260509125322 6 22 0.0 0.0 0.13 0.56 0.43 93
20260509124823 6 22 0.0 0.0 0.13 0.56 0.43 93
20260509124322 6 22 0.0 0.0 0.10 0.53 0.41 93
20260509123822 6 22 0.0 0.0 0.10 0.53 0.41 93
20260509123323 6 22 0.0 4.8 0.08 0.51 0.38 93
20260509122824 6 22 0.0 4.8 0.08 0.51 0.38 93
20260509122322 6 22 0.0 0.0 0.05 0.48 0.36 93
20260509121821 6 21 0.0 0.0 0.05 0.48 0.36 93
20260509121321 5 21 0.0 0.0 0.05 0.46 0.33 93
20260509120821 5 21 0.0 6.4 0.05 0.46 0.33 93
20260509120323 5 21 0.0 6.4 0.05 0.46 0.33 93
20260509115821 5 20 0.0 1.6 0.03 0.43 0.30 93
20260509115340 5 19 0.0 4.8 0.03 0.43 0.30 93
20260509114839 5 17 1.6 4.8 0.03 0.43 0.30 93
20260509114318 5 17 0.0 0.0 0.03 0.43 0.30 92
20260509113818 5 17 0.0 0.0 0.03 0.43 0.30 92
20260509113317 5 17 0.0 0.0 0.03 0.43 0.30 92
20260509112817 5 17 0.0 0.0 0.03 0.43 0.30 92
20260509112318 5 17 0.0 0.0 0.03 0.43 0.30 92
20260509111838 5 17 0.0 0.0 0.03 0.43 0.30 92
20260509111315 5 17 0.0 0.0 0.00 0.41 0.28 92
20260509110815 4 17 0.0 0.0 0.00 0.41 0.28 92
20260509110317 4 17 0.0 0.0 0.00 0.41 0.28 92
20260509105814 4 17 0.0 0.0 0.00 0.41 0.28 92
20260509105314 4 17 0.0 0.0 0.00 0.41 0.28 92
20260509104813 4 17 0.0 0.0 0.00 0.41 0.28 92
20260509104335 4 17 0.0 0.0 0.00 0.41 0.28 92
20260509103836 4 17 0.0 0.0 0.00 0.41 0.28 92
20260509103316 3 17 0.0 0.0 0.00 0.41 0.28 92
20260509102815 3 17 0.0 0.0 0.00 0.41 0.28 91
20260509102314 3 17 0.0 1.6 0.00 0.41 0.28 91
20260509101814 3 17 0.0 0.0 0.00 0.41 0.28 91
20260509101314 3 17 0.0 3.2 0.03 0.41 0.28 91
20260509100814 3 17 0.0 4.8 0.03 0.41 0.28 91
20260509100316 3 16 0.0 3.2 0.05 0.41 0.28 91
20260509095814 3 16 0.0 0.0 0.08 0.41 0.28 91
20260509095313 3 16 0.0 0.0 0.10 0.41 0.28 91
20260509094813 3 16 0.0 0.0 0.15 0.41 0.28 91
20260509094313 3 16 0.0 0.0 0.20 0.41 0.28 91
20260509093814 3 15 0.0 0.0 0.23 0.41 0.28 91
20260509093317 3 15 0.0 0.0 0.23 0.41 0.28 90
20260509092814 3 15 0.0 0.0 0.25 0.41 0.28 90
20260509092334 3 15 0.0 0.0 0.25 0.41 0.28 90
20260509091814 3 16 0.0 3.2 0.25 0.41 0.28 90
20260509091314 3 16 0.0 3.2 0.23 0.38 0.25 90
20260509090814 3 15 0.0 3.2 0.25 0.38 0.25 90
20260509090329 3 16 0.0 3.2 0.23 0.36 0.23 89
20260509085829 3 15 0.0 3.2 0.20 0.33 0.20 89
20260509085328 2 15 0.0 0.0 0.15 0.28 0.15 89
20260509084828 2 15 0.0 4.8 0.13 0.25 0.13 89
20260509084327 2 15 0.0 4.8 0.08 0.20 0.08 89
20260509083828 2 14 0.0 4.8 0.05 0.18 0.05 89
20260509083329 2 14 0.0 4.8 0.05 0.18 0.05 89
20260509082813 2 14 0.0 3.2 0.03 0.15 0.03 88
20260509082328 2 14 0.0 3.2 0.03 0.15 0.03 88
20260509081849 2 13 0.0 0.0 0.03 0.15 0.03 88
20260509081329 2 13 0.0 0.0 0.03 0.15 0.03 88
20260509080828 2 13 0.0 0.0 0.00 0.13 0.00 88
20260509080330 2 13 0.0 0.0 0.00 0.13 0.00 88
20260509075828 2 13 0.0 0.0 0.00 0.13 0.00 88
20260509075329 2 14 0.0 0.0 0.00 0.13 0.00 88
20260509074828 2 13 0.0 0.0 0.00 0.13 0.00 88
20260509074329 2 13 0.0 0.0 0.00 0.13 0.00 89
20260509073829 2 13 0.0 0.0 0.00 0.13 0.00 88
20260509073331 2 13 0.0 0.0 0.00 0.13 0.00 89
20260509072831 2 13 0.0 0.0 0.00 0.13 0.00 89
20260509072331 2 13 0.0 0.0 0.00 0.13 0.00 89
20260509071830 2 14 0.0 0.0 0.00 0.13 0.00 89
20260509071330 2 14 0.0 3.2 0.00 0.13 0.00 89
20260509070851 2 14 0.0 3.2 0.00 0.13 0.00 89
20260509070331 2 13 0.0 0.0 0.00 0.13 0.00 89
20260509065830 1 13 0.0 4.8 0.00 0.13 0.00 89
20260509065350 2 14 1.6 4.8 0.00 0.13 0.00 89
20260509064828 2 12 0.0 0.0 0.00 0.13 0.00 89
20260509064328 2 12 0.0 0.0 0.00 0.13 0.00 89
20260509063827 1 12 0.0 0.0 0.00 0.13 0.00 89
20260509063327 1 12 0.0 0.0 0.00 0.13 0.00 89
20260509062827 1 12 0.0 0.0 0.00 0.13 0.00 89
20260509062347 1 12 0.0 0.0 0.00 0.13 0.00 89
20260509061825 2 12 0.0 0.0 0.00 0.13 0.00 89
20260509061326 2 12 0.0 0.0 0.00 0.13 0.00 89
20260509060825 1 12 0.0 0.0 0.00 0.13 0.00 89
20260509060327 1 12 0.0 0.0 0.00 0.13 0.00 89
20260509055826 1 12 0.0 0.0 0.00 0.13 0.00 88
20260509055327 1 12 0.0 0.0 0.00 0.13 0.00 88
20260509054828 1 12 0.0 0.0 0.00 0.13 0.00 88
20260509054328 1 12 0.0 0.0 0.00 0.13 0.00 88
20260509053829 2 12 0.0 0.0 0.00 0.13 0.00 87
20260509053331 2 12 0.0 0.0 0.00 0.13 0.00 87
20260509052829 2 12 0.0 0.0 0.00 0.13 0.00 87
20260509052350 2 12 0.0 0.0 0.00 0.13 0.00 87
20260509051827 2 12 0.0 0.0 0.00 0.13 0.00 87
20260509051347 2 12 0.0 0.0 0.00 0.13 0.00 86
20260509050845 2 12 0.0 0.0 0.00 0.13 0.00 86
20260509050326 2 12 0.0 0.0 0.00 0.13 0.00 86
20260509045844 2 12 0.0 0.0 0.00 0.13 0.00 85
20260509045322 2 12 0.0 0.0 0.00 0.13 0.00 85
20260509044823 3 12 0.0 0.0 0.00 0.13 0.00 85
20260509044324 3 12 0.0 0.0 0.00 0.13 0.00 85
20260509043825 3 12 0.0 0.0 0.00 0.13 0.00 84
20260509043326 3 12 0.0 0.0 0.00 0.13 0.00 84
20260509042845 3 12 0.0 0.0 0.00 0.13 0.00 83
20260509042323 3 12 0.0 0.0 0.00 0.13 0.00 83
20260509041819 3 12 0.0 0.0 0.00 0.13 0.00 83
20260509041319 3 12 0.0 0.0 0.00 0.13 0.00 83
20260509040820 3 12 0.0 0.0 0.00 0.13 0.00 83
20260509040321 3 10 0.0 0.0 0.00 0.13 0.00 83
20260509035819 3 10 0.0 0.0 0.00 0.13 0.13 83
20260509035337 3 10 0.0 0.0 0.00 0.13 0.13 83
20260509034816 3 10 0.0 0.0 0.00 0.13 0.13 83
20260509034336 3 10 0.0 0.0 0.00 0.13 0.13 83
20260509033814 3 10 0.0 0.0 0.00 0.13 0.13 82
20260509033316 3 10 0.0 0.0 0.00 0.13 0.13 82
20260509032816 4 10 0.0 0.0 0.00 0.13 0.13 82